TimeEDT,TemperatureF,Dew PointF,Humidity,Sea Level PressureIn,VisibilityMPH,Wind Direction,Wind SpeedMPH,Gust SpeedMPH,PrecipitationIn,Events,Conditions,WindDirDegrees,DateUTC
12:15 AM,50.0,32.0,50,30.27,10.0,North,4.6,-,N/A,,Clear,360,2014-04-21 04:15:00
12:35 AM,46.4,33.8,62,30.27,10.0,Calm,Calm,-,N/A,,Clear,0,2014-04-21 04:35:00
12:55 AM,46.4,33.8,62,30.27,10.0,NNE,3.5,-,N/A,,Clear,30,2014-04-21 04:55:00
1:15 AM,46.4,33.8,62,30.27,10.0,NNE,4.6,-,N/A,,Clear,20,2014-04-21 05:15:00
1:35 AM,42.8,35.6,76,30.26,10.0,Calm,Calm,-,N/A,,Clear,0,2014-04-21 05:35:00
1:55 AM,42.8,35.6,76,30.26,10.0,Calm,Calm,-,N/A,,Clear,0,2014-04-21 05:55:00
2:15 AM,41.0,35.6,81,30.26,10.0,Calm,Calm,-,N/A,,Clear,0,2014-04-21 06:15:00
2:35 AM,42.8,33.8,70,30.25,10.0,NE,3.5,-,N/A,,Clear,40,2014-04-21 06:35:00
2:55 AM,44.6,32.0,61,30.25,10.0,NNE,3.5,-,N/A,,Clear,30,2014-04-21 06:55:00
3:15 AM,46.4,32.0,57,30.24,10.0,ENE,3.5,-,N/A,,Clear,60,2014-04-21 07:15:00
3:35 AM,41.0,33.8,76,30.25,10.0,Calm,Calm,-,N/A,,Clear,0,2014-04-21 07:35:00
3:55 AM,41.0,33.8,76,30.25,10.0,Calm,Calm,-,N/A,,Clear,0,2014-04-21 07:55:00
4:15 AM,42.8,33.8,70,30.25,10.0,NE,4.6,-,N/A,,Clear,40,2014-04-21 08:15:00
4:35 AM,42.8,32.0,66,30.25,10.0,NNE,4.6,-,N/A,,Clear,30,2014-04-21 08:35:00
4:55 AM,42.8,32.0,66,30.24,10.0,Calm,Calm,-,N/A,,Clear,0,2014-04-21 08:55:00
5:15 AM,41.0,33.8,76,30.24,10.0,Calm,Calm,-,N/A,,Clear,0,2014-04-21 09:15:00
5:35 AM,41.0,33.8,76,30.24,10.0,Calm,Calm,-,N/A,,Clear,0,2014-04-21 09:35:00
6:15 AM,35.6,33.8,93,30.24,10.0,Calm,Calm,-,N/A,,Clear,0,2014-04-21 10:15:00
6:35 AM,35.6,33.8,93,30.24,10.0,Calm,Calm,-,N/A,,Clear,0,2014-04-21 10:35:00
6:55 AM,35.6,33.8,93,30.25,10.0,Calm,Calm,-,N/A,,Clear,0,2014-04-21 10:55:00
7:15 AM,35.6,33.8,93,30.25,10.0,Calm,Calm,-,N/A,,Clear,0,2014-04-21 11:15:00
7:30 AM,37.4,33.8,87,30.25,10.0,Calm,Calm,-,N/A,,Clear,0,2014-04-21 11:30:00
7:55 AM,41.0,35.6,81,30.25,10.0,Calm,Calm,-,N/A,,Clear,0,2014-04-21 11:55:00
8:15 AM,42.8,35.6,76,30.25,10.0,Calm,Calm,-,N/A,,Clear,0,2014-04-21 12:15:00
8:35 AM,44.6,37.4,76,30.24,10.0,Calm,Calm,-,N/A,,Clear,0,2014-04-21 12:35:00
8:55 AM,46.4,37.4,71,30.24,10.0,Calm,Calm,-,N/A,,Clear,0,2014-04-21 12:55:00
9:15 AM,50.0,37.4,62,30.24,10.0,Calm,Calm,-,N/A,,Clear,0,2014-04-21 13:15:00
9:35 AM,51.8,37.4,58,30.24,10.0,Calm,Calm,-,N/A,,Clear,0,2014-04-21 13:35:00
9:55 AM,53.6,37.4,54,30.23,10.0,Calm,Calm,-,N/A,,Clear,0,2014-04-21 13:55:00
10:15 AM,55.4,37.4,51,30.22,10.0,Calm,Calm,-,N/A,,Clear,0,2014-04-21 14:15:00
10:35 AM,57.2,39.2,51,30.22,10.0,Calm,Calm,-,N/A,,Clear,0,2014-04-21 14:35:00
10:55 AM,57.2,37.4,48,30.22,10.0,Calm,Calm,-,N/A,,Clear,0,2014-04-21 14:55:00
11:15 AM,59.0,35.6,42,30.20,10.0,Calm,Calm,-,N/A,,Clear,0,2014-04-21 15:15:00
11:35 AM,60.8,35.6,39,30.19,10.0,Calm,Calm,-,N/A,,Clear,0,2014-04-21 15:35:00
11:55 AM,62.6,37.4,39,30.18,10.0,Calm,Calm,-,N/A,,Clear,0,2014-04-21 15:55:00
12:15 PM,62.6,37.4,39,30.17,10.0,Calm,Calm,-,N/A,,Clear,0,2014-04-21 16:15:00
12:35 PM,64.4,35.6,34,30.16,10.0,Calm,Calm,-,N/A,,Clear,0,2014-04-21 16:35:00
12:55 PM,66.2,37.4,35,30.14,10.0,Calm,Calm,-,N/A,,Clear,0,2014-04-21 16:55:00
1:15 PM,68.0,41.0,37,30.13,10.0,Calm,Calm,-,N/A,,Clear,0,2014-04-21 17:15:00
1:35 PM,68.0,37.4,33,30.12,10.0,Calm,Calm,-,N/A,,Clear,0,2014-04-21 17:35:00
1:55 PM,69.8,41.0,35,30.10,10.0,Calm,Calm,-,N/A,,Clear,0,2014-04-21 17:55:00
2:15 PM,71.6,41.0,33,30.09,10.0,Calm,Calm,-,N/A,,Clear,0,2014-04-21 18:15:00
2:35 PM,71.6,41.0,33,30.08,10.0,East,5.8,-,N/A,,Clear,90,2014-04-21 18:35:00
2:55 PM,71.6,41.0,33,30.06,10.0,East,3.5,-,N/A,,Clear,80,2014-04-21 18:55:00
3:15 PM,71.6,41.0,33,30.05,10.0,ESE,3.5,-,N/A,,Clear,110,2014-04-21 19:15:00
3:35 PM,73.4,42.8,33,30.04,10.0,SE,5.8,-,N/A,,Clear,130,2014-04-21 19:35:00
3:55 PM,73.4,42.8,33,30.03,10.0,ESE,6.9,-,N/A,,Clear,120,2014-04-21 19:55:00
4:15 PM,73.4,42.8,33,30.03,10.0,ESE,6.9,-,N/A,,Clear,120,2014-04-21 20:15:00
4:35 PM,73.4,42.8,33,30.02,10.0,ESE,5.8,-,N/A,,Clear,110,2014-04-21 20:35:00
4:55 PM,73.4,44.6,36,30.02,10.0,South,8.1,-,N/A,,Clear,170,2014-04-21 20:55:00
5:15 PM,73.4,44.6,36,30.01,10.0,South,5.8,-,N/A,,Clear,180,2014-04-21 21:15:00
5:35 PM,73.4,44.6,36,30.01,10.0,South,5.8,-,N/A,,Clear,170,2014-04-21 21:35:00
6:15 PM,71.6,44.6,38,30.01,10.0,SSE,6.9,-,N/A,,Clear,160,2014-04-21 22:15:00
6:35 PM,71.6,44.6,38,30.01,10.0,South,5.8,-,N/A,,Clear,170,2014-04-21 22:35:00
6:55 PM,69.8,42.8,38,30.01,10.0,South,6.9,-,N/A,,Clear,170,2014-04-21 22:55:00
7:15 PM,68.0,42.8,40,30.00,10.0,SE,4.6,-,N/A,,Clear,140,2014-04-21 23:15:00
7:35 PM,68.0,42.8,40,30.01,10.0,South,3.5,-,N/A,,Clear,180,2014-04-21 23:35:00
7:55 PM,68.0,42.8,40,30.01,10.0,Calm,Calm,-,N/A,,Clear,0,2014-04-21 23:55:00
8:15 PM,64.4,42.8,45,30.01,10.0,Calm,Calm,-,N/A,,Clear,0,2014-04-22 00:15:00
8:35 PM,64.4,42.8,45,30.01,10.0,Calm,Calm,-,N/A,,Clear,0,2014-04-22 00:35:00
8:55 PM,64.4,42.8,45,30.01,10.0,SW,3.5,-,N/A,,Clear,220,2014-04-22 00:55:00
9:15 PM,62.6,44.6,52,30.01,10.0,SW,3.5,-,N/A,,Clear,220,2014-04-22 01:15:00
9:35 PM,62.6,44.6,52,30.01,10.0,Calm,Calm,-,N/A,,Clear,0,2014-04-22 01:35:00
9:55 PM,62.6,44.6,52,30.02,10.0,Calm,Calm,-,N/A,,Clear,0,2014-04-22 01:55:00
10:15 PM,62.6,44.6,52,30.01,10.0,Calm,Calm,-,N/A,,Clear,0,2014-04-22 02:15:00
10:35 PM,60.8,42.8,52,30.00,10.0,Calm,Calm,-,N/A,,Clear,0,2014-04-22 02:35:00
10:55 PM,59.0,44.6,59,30.00,10.0,Calm,Calm,-,N/A,,Clear,0,2014-04-22 02:55:00
11:15 PM,59.0,42.8,55,29.99,10.0,Calm,Calm,-,N/A,,Clear,0,2014-04-22 03:15:00
11:35 PM,59.0,44.6,59,29.99,10.0,Calm,Calm,-,N/A,,Clear,0,2014-04-22 03:35:00
11:55 PM,60.8,42.8,52,29.98,10.0,Calm,Calm,-,N/A,,Clear,0,2014-04-22 03:55:00